www.pogodaiklimat.ru

Погода и климат >> Архив погоды >> Гана >> Аким Ода


ПОГОДА в Аким Ода

  • Прогноз погоды в Аким Ода
  • Монитор погоды в Аким Ода

АРХИВ ПОГОДЫ в Аким Ода

Время (UTC), дата Ветер
(напр.,м/с)
 
Видим.   Явления Облачность Т
(С)
Тd
(С)
f
(%)
Тe
(С)
Тes
(С)
Комфортность P
(гПа)
Po
(гПа)
Тmin
(С)
Tmax
(С)
R
(мм)
R24
(мм)
S
(см)
03 18.03 штиль 0 12 км 8/3 360 м
[Sc Ac trans]
+24.5 +23.5 94 +33 +33 очень
душно
1008.8 992.7
09 18.03 З 1 15 км 8/0
[Ac trans Ci sp]
+28.3 +23.1 73 +38 +46 очень
душно
1011.8 995.9
12 18.03 Ю 2 2500 м 9/0
[Ac trans]
+32.4 +22.6 56 +42 +52 опасность
перегрева
1007.9 992.2
15 18.03 СЗ 1 15 км 8/1 480 м
[Cu hum Ac trans]
+35.8 +22.9 47 +45 +52 опасность
перегрева
1006.4 990.9
18 18.03 ЮЗ 2 15 км 6/3 400 м
[Cb cap Ac trans]
+32.4 +24.9 65 +46 +46 опасность
перегрева
1007.4 991.7 +36.2
21 18.03 ЮЗ 1 14 км 8/0 300 м
[Ac trans Cs]
+28.5 +24.1 77 +40 +40 очень
душно
1009.8 993.9
09 19.03 ЮЗ 1 12 км 8/8 360 м
[Cu Sc]
+28.4 +26.0 87 +43 +45 опасность
перегрева
1010.8 994.9
12 19.03 ЮЗ 1 16 км 8/6 450 м
[Cu med, cong Ci sp]
+34.4 +24.8 57 +47 +57 опасность
перегрева
1008.4 992.8
15 19.03 СЗ 2 20 км 5/4 480 м
[Cb cap Ci sp]
+36.4 +24.7 51 +49 +56 опасность
перегрева
1005.0 989.6
18 19.03 Ю 3 12 км гроза, ливневой дождь 9/8 360 м
[Cb cap Ac trans Cs]
+33.3 +26.2 66 +49 +49 опасность
перегрева
1005.6 990.0 +36.7 0.0
21 19.03 СЗ 2 12 км гроза без осадков 9/5 300 м
[Cb cap Ac trans]
+23.7 +23.0 96 +31 +31 очень
душно
1010.7 994.5
09 20.03 ЮЗ 2 10 км 9/8 400 м
[Sc Ac trans Cs]
+27.0 +24.7 87 +38 +40 очень
душно
1012.3 996.3
12 20.03 ЮЗ 2 20 км 9/6 420 м
[Cu Sc Cs]
+31.4 +26.0 73 +47 +55 опасность
перегрева
1010.1 994.4
18 20.03 ЮЗ 1 16 км 9/6 400 м
[Cb cap Ac trans Ci sp]
+31.6 +24.4 66 +44 +44 опасность
перегрева
1006.0 990.3 +34.9
21 20.03 Ю 1 14 км 8/4 360 м
[Sc Ac trans Ci sp]
+28.5 +25.0 81 +41 +41 опасность
перегрева
1009.3 993.4
06 21.03 З 1 17 км 8/0
[Ac trans Ci sp]
+26.0 +25.3 96 +38 +38 очень
душно
1010.3 994.3 +25.4
09 21.03 З 1 18 км 8/5 450 м
[Cu med, cong Ci sp]
+29.9 +25.9 79 +45 +50 опасность
перегрева
1010.7 994.9
12 21.03 ЮЗ 1 12 км 9/0 500 м
[Ci sp]
+32.6 +24.2 61 +45 +61 опасность
перегрева
1009.4 993.7
15 21.03 ЮЗ 1 14 км 9/3 540 м
[Cu med, cong Cs]
+35.7 +25.9 57 +51 +59 опасность
перегрева
1004.5 989.1
18 21.03 ЮВ 3 12 км гроза, ливневой дождь 9/9 360 м
[Cb cap]
+24.8 +23.6 93 +34 +34 очень
душно
1008.7 992.6 +35.7 4
00 22.03 ЮЗ 1 12 км {гроза, дождь} 9/4 360 м
[Sc Ac trans Cs]
+24.2 +23.9 98 +33 +33 очень
душно
1011.2 995.1 2
06 22.03 СВ 1 12 км 9/8 360 м
[Sc Ac trans]
+23.6 +23.0 96 +31 +31 очень
душно
1011.4 995.2 +23.0 6
12 22.03 СЗ 1 12 км {дождь} 9/4 400 м
[Sc Ac trans]
+25.0 +23.1 89 +33 +41 очень
душно
1011.1 995.0 3
15 22.03 ЮВ 1 12 км 9/0 300 м
[Ac trans Cs]
+28.3 +24.2 78 +39 +49 очень
душно
1007.8 991.9
18 22.03 ЮЗ 1 12 км 9/0
[Ac trans Cs]
+28.7 +23.6 74 +39 +39 очень
душно
1008.5 992.6 +29.2 3
21 22.03 ЮЗ 1 12 км 9/0
[Ac trans Cs]
+25.6 +24.1 91 +35 +35 очень
душно
1010.8 994.7
03 23.03 штиль 0 12 км 9/4 360 м
[Sc Ac trans]
+24.0 +23.3 96 +32 +32 очень
душно
1010.2 994.1
12 23.03 ЮЗ 2 12 км 9/6 480 м
[Cu med, cong Ac trans]
+31.0 +24.2 67 +43 +48 опасность
перегрева
1011.5 995.7
18 23.03 З 1 20 км 9/1 900 м
[Cb cap Ac trans Cs]
+32.0 +25.3 68 +46 +46 опасность
перегрева
1007.5 991.8 +34.1
21 23.03 ЮЗ 1 16 км 6/0
[Ci sp]
+27.9 +25.6 87 +41 +41 опасность
перегрева
1011.1 995.2
06 24.03 ЮЗ 1 16 км 9/9 360 м
[Sc]
+25.6 +24.8 95 +36 +36 очень
душно
1010.5 994.4 +25.0
09 24.03 ЮЗ 2 20 км 8/8 400 м
[Cu Sc Ac trans]
+28.4 +25.7 85 +42 +44 опасность
перегрева
1012.3 996.4

 

Местоположение метеостанции Аким Ода (Гана): широта 5.93 долгота -0.98 высота над уровнем моря 140 м.

В архиве по умолчанию представлена погода в Аким Ода за последнюю неделю. Архивные данные за месяц целиком и за предыдущие месяцы, начиная с января 2011 года, Вы можете получить, выбрав интересующий диапазон дат из раскрывающегося списка и нажав кнопку "Ввод!".


*Определитесь, кто Вы:
робот инопланетянин человек

Внимание! Время в таблицах - всемирное. Для получения местного времени необходимо прибавить поправку, которая равна 1 ч.

Смотрите также архив погоды в соседних городах и на ближайших метеорологических станциях:

Погода в Солтпонде (Гана) (82 км)
Погода в Кофоридуа (Гана) (82 км)
Погода в Абетифи (Гана) (86 км)
Погода в Аккра (Гана) (97 км)
Погода в Кумаси (Гана) (111 км)
Погода в Тема (Гана) (114 км)
Погода в Акюсе (Гана) (123 км)
Погода Такоради (Гана) (146 км)
Погода в Сефви Беквай (Гана) (152 км)
Погода в Хо (Гана) (177 км)

Пояснения к столбцам:

Ветер - указаны скорость ветра в м/с - средняя за 10 мин, порывы в срок и между сроками (в фигурных скобках) и направление, откуда дует ветер: С - северный, СВ - северо-восточный, В - восточный, ЮВ - юго-восточный, Ю - южный, ЮЗ - юго-западный, З - западный, СЗ - северо-западный.
Видимость - горизонтальная дальность видимости в метрах или километрах. При видимости от 1 до 10 км при отсутствии осадков обычно наблюдается дымка, при ухудшении видимости до 1 км и менее - туман. В сухую погоду видимость может ухудшаться дымом, пылью или мглою.
Явления - указаны атмосферные явления, наблюдавшиеся в срок или в последний час перед сроком; фигурными скобками обозначены явления, наблюдавшиеся между сроками (за 1-3 часа до срока); квадратными скобками обозначены град или гололедные отложения с указанием их диаметра в мм.
Облачность - указаны через наклонную черту общая и нижняя облачность в баллах и высота нижней границы облаков в метрах; квадратными скобками обозначены формы облаков: Ci - перистые, Cs - перисто-слоистые, Cc - перисто-кучевые, Ac - высококучевые, As - высокослоистые, Sc - слоисто-кучевые, Ns - слоисто-дождевые, Cu - кучевые, Cb - кучево-дождевые. Подробнее классификацию облаков см. в Атласе облаков (PDF).
T - Температура воздуха - температура, измеренная на высоте 2 м над землей.
Td - Температура точки росы - температура, при понижении до которой содержащийся в воздухе водяной пар достигнет насыщения.
f - Относительная влажность воздуха - влажноcть воздуха, измеренная на высоте 2 м над землей.
Te - Эффективная температура - температура, которую ощущает одетый по сезону человек в тени. Характеристика душности погоды. При расчете учитывается влияние влажности воздуха и скорости ветра на теплоощущения человека.
Tes - Эффективная температура на солнце - температура, которую ощущает человек, с поправкой на солнечный нагрев. Характеристика знойности погоды. Зависит от высоты солнца над горизонтом, облачности и скорости ветра. Ночью, в пасмурную погоду, а также при ветре 12 м/с и более поправка равна нулю.
P - Атмосферное давление - приведенное к уровню моря атмосферное давление.
Po - Атмосферное давление - измеренное на уровне метеостанции атмосферное давление.
Tmin - Минимальная температура - минимум температуры воздуха на высоте 2 м над землей.
Tmax - Максимальная температура - максимум температуры воздуха на высоте 2 м над землей.
R - Количество осадков - Количество выпавших осадков за период времени, мм. При наведении курсора мыши на число - период времени, за который выпало указанное количество осадков.
R24 - Количество осадков - Количество выпавших осадков за 24 часа, мм.
S - Снежный покров - Высота снежного покрова, см. При наведении курсора мыши на число - состояние снежного покрова и степень покрытия местности в баллах.